This is the latest recevied weather packets stored in our database for station/object DO1MIT-10. If no packets are shown the sender has not sent any weather packets the latest 10 day(s).
| Time | Temp. | Humidity | Pressure | Rain* | Wind** | Luminosity | Snow |
|---|---|---|---|---|---|---|---|
| 1777835094 | 18.89° C | 44% | 1014.1 hPa | - | - | - | - |
| 1777834194 | 18.33° C | 44% | 1013.9 hPa | - | - | - | - |
| 1777833294 | 18.33° C | 44% | 1013.6 hPa | - | - | - | - |
| 1777832394 | 18.89° C | 42% | 1013.5 hPa | - | - | - | - |
| 1777831494 | 20° C | 41% | 1013.4 hPa | - | - | - | - |
| 1777830594 | 21.11° C | 40% | 1013.4 hPa | - | - | - | - |
| 1777829694 | 21.67° C | 38% | 1013.4 hPa | - | - | - | - |
| 1777828794 | 22.78° C | 38% | 1013.5 hPa | - | - | - | - |
| 1777827893 | 23.33° C | 37% | 1013.5 hPa | - | - | - | - |
| 1777826993 | 23.89° C | 36% | 1013.5 hPa | - | - | - | - |
| 1777826093 | 25° C | 37% | 1013.5 hPa | - | - | - | - |
| 1777825193 | 25.56° C | 37% | 1013.7 hPa | - | - | - | - |
| 1777824293 | 25.56° C | 37% | 1013.7 hPa | - | - | - | - |
| 1777823393 | 26.11° C | 36% | 1013.7 hPa | - | - | - | - |
| 1777822493 | 27.22° C | 36% | 1013.8 hPa | - | - | - | - |
| 1777821593 | 27.22° C | 36% | 1013.9 hPa | - | - | - | - |
| 1777820693 | 27.78° C | 35% | 1014.1 hPa | - | - | - | - |
| 1777819793 | 27.78° C | 35% | 1014.3 hPa | - | - | - | - |
| 1777818893 | 28.33° C | 36% | 1014.5 hPa | - | - | - | - |
| 1777817992 | 28.33° C | 35% | 1014.6 hPa | - | - | - | - |
| 1777817092 | 29.44° C | 36% | 1014.9 hPa | - | - | - | - |
| 1777816192 | 28.89° C | 37% | 1015 hPa | - | - | - | - |
| 1777815292 | 28.89° C | 37% | 1015.2 hPa | - | - | - | - |
| 1777814392 | 28.33° C | 37% | 1015.3 hPa | - | - | - | - |
| 1777813492 | 27.78° C | 37% | 1015.6 hPa | - | - | - | - |
* Rain since midnight (hover to see other rain measurements)
** Current wind speed in m/s (hover to see current wind gust speed)